Location: Friaudour
(46.0460°N, 1.2873°E)
Time: 10:41:55
(UTC+00:00)

Cosmos 1437 Rocket - Pass Details

Date: 14 July 2020
Orbit: 506 x 562 km, 81.2° (Epoch: 05 August)

Event Time Altitude Azimuth Distance (km) Brightness Sun altitude
Rises 02:06:08 0° 342° (NNW) 2,737 7.0 -16.6°
Reaches altitude 10° 02:08:24 10° 335° (NNW) 1,829 5.9 -16.4°
Maximum altitude 02:12:12 41° 265° (W) 798 3.3 -16.1°
Enters shadow 02:13:24 32° 223° (SW) 950 3.5 -16.0°
